User: anonymous   Login
Location: Byszew
(52.1813°N, 19.2693°E)
Time: 12:22:16
(UTC+00:00)
Language:

Spot 2 Rocket - Orbit

View from above orbital plane
View from above orbital plane
View from above satellite
View from above satellite

Ground track
Ground track

The orbit data is extracted from the following two-line orbital elements,

1 20443U 90005H   21138.10361685  .00000018  00000-0  20470-4 0  9998
2 20443  98.5300 204.5685 0011502  69.1878 291.0540 14.38125976640476
Epoch (UTC): 18 May 2021 02:29:12
Eccentricity: 0.0011502
inclination: 98.5300°
perigee height: 756 km
apogee height: 773 km
right ascension of ascending node: 204.5685°
argument of perigee: 69.1878°
revolutions per day: 14.38125976
mean anomaly at epoch: 291.0540°
orbit number at epoch: 64047

The dashed part of the orbit path shows where the satellite is in the earth's shadow,  

DLR